Вернуться в каталог

DELTA 1 DEB

АктивенSSO
NORAD 21373·DEBRIS·🇺🇸 United States

Запущен Jun 12, 1975 с Vandenberg Space Force Base

Loading…

Ближайшие Пролёты (ближайшие 24 часа)

TLE

СвежийSource: Space-Track

Эпоха: Sep 14, 2026, 12:12 UTC

1 21373U 75052CT  26257.50894874  .00000057  00000-0  20107-3 0  9997
2 21373  99.9235 149.3579 0074282 171.9576 313.0475 13.32712786716212

Отслеживайте DELTA 1 DEB в реальном времени с AllMySat

Download on the App Store